GW1701 Weather Reports


time (UTC)temp
C
wind
direction
speed
KPH
gust
KPH
rain 1hr
cm
rain 24hr
cm
rain mn
cm
humidity
%
barometer
mb
20260506004449 27 97 1.6 3.2 0.00 0.00 0.00 83 1006.2
20260506003944 27 99 0.0 0.0 0.00 0.00 0.00 83 1006.1
20260506003441 27 137 3.2 3.2 0.00 0.00 0.00 83 1006.0
20260506002937 27 113 0.0 0.0 0.00 0.00 0.00 82 1005.8
20260506002433 27 102 0.0 0.0 0.00 0.00 0.00 82 1006.1
20260506001929 27 104 0.0 0.0 0.00 0.00 0.00 82 1005.9
20260506001426 27 174 3.2 3.2 0.00 0.00 0.00 81 1005.9
20260506000923 27 125 1.6 3.2 0.00 0.00 0.00 81 1006.2
20260506000423 27 100 0.0 0.0 0.00 0.00 0.00 82 1005.9
20260505235917 27 103 0.0 0.0 0.00 0.00 0.00 81 1005.7
20260505235416 27 135 3.2 3.2 0.00 0.00 0.00 81 1005.7
20260505234912 27 67 0.0 0.0 0.00 0.00 0.00 81 1005.7
20260505234410 27 224 3.2 4.8 0.00 0.00 0.00 80 1005.5
20260505233906 27 107 3.2 3.2 0.00 0.00 0.00 80 1005.5
20260505233404 27 147 4.8 8.0 0.00 0.00 0.00 80 1005.4
20260505232901 27 131 3.2 4.8 0.00 0.00 0.00 80 1005.5
20260505232359 27 126 3.2 4.8 0.00 0.00 0.00 80 1005.2
20260505231855 27 89 0.0 3.2 0.00 0.00 0.00 80 1005.3
20260505231353 27 267 4.8 8.0 0.00 0.00 0.00 79 1005.5
20260505230851 27 102 1.6 3.2 0.00 0.00 0.00 79 1005.4
20260505230348 27 207 3.2 4.8 0.00 0.00 0.00 79 1005.3
20260505225845 27 145 0.0 3.2 0.00 0.00 0.00 79 1005.4
20260505225342 28 241 6.4 9.7 0.00 0.00 0.00 78 1005.4
20260505224837 28 72 1.6 3.2 0.00 0.00 0.00 78 1005.5
20260505224335 28 135 1.6 3.2 0.00 0.00 0.00 78 1005.3
20260505223832 28 183 4.8 8.0 0.00 0.00 0.00 78 1005.4
20260505223329 28 87 1.6 3.2 0.00 0.00 0.00 78 1005.3
20260505222825 28 220 8.0 9.7 0.00 0.00 0.00 78 1005.4
20260505222321 28 159 4.8 4.8 0.00 0.00 0.00 78 1005.5
20260505221818 28 158 4.8 8.0 0.00 0.00 0.00 78 1005.5
20260505221315 28 109 1.6 3.2 0.00 0.00 0.00 77 1005.5
20260505220812 28 200 8.0 14.5 0.00 0.00 0.00 76 1005.7
20260505220309 28 59 4.8 8.0 0.00 0.00 0.00 77 1005.8
20260505215807 28 157 1.6 3.2 0.00 0.00 0.00 77 1005.6
20260505215305 28 230 4.8 4.8 0.00 0.00 0.00 77 1006.0
20260505214802 28 227 8.0 12.9 0.00 0.00 0.00 76 1005.8
20260505214300 28 221 9.7 14.5 0.00 0.00 0.00 76 1005.7
20260505213756 28 152 8.0 14.5 0.00 0.00 0.00 76 1005.7
20260505213254 28 155 0.0 3.2 0.00 0.00 0.00 77 1005.8
20260505212749 28 132 0.0 3.2 0.00 0.00 0.00 79 1006.2
20260505212247 28 189 4.8 4.8 0.00 0.00 0.00 78 1006.1
20260505211744 28 202 4.8 8.0 0.00 0.00 0.00 79 1006.1
20260505211242 28 203 4.8 8.0 0.00 0.00 0.00 78 1006.0
20260505210737 27 88 3.2 4.8 0.00 0.00 0.00 79 1006.3
20260505210235 27 129 4.8 8.0 0.00 0.00 0.00 78 1006.5
20260505205732 28 222 9.7 12.9 0.00 0.00 0.00 78 1006.6
20260505205230 27 189 6.4 9.7 0.00 0.00 0.00 79 1006.5
20260505204726 27 176 6.4 9.7 0.00 0.00 0.00 80 1006.7
20260505204224 28 119 3.2 4.8 0.00 0.00 0.00 79 1006.6
20260505203721 28 147 1.6 3.2 0.00 0.00 0.00 79 1006.6
20260505203218 28 120 3.2 4.8 0.00 0.00 0.00 77 1006.9
20260505202714 28 257 1.6 3.2 0.00 0.00 0.00 79 1007.0
20260505202210 28 200 4.8 9.7 0.00 0.00 0.00 77 1007.0
20260505201706 27 225 0.0 3.2 0.00 0.00 0.00 80 1006.9
20260505201205 27 136 8.0 12.9 0.00 0.00 0.00 79 1007.0
20260505200702 27 152 3.2 4.8 0.00 0.00 0.00 81 1007.1
20260505200159 27 91 6.4 9.7 0.00 0.00 0.00 80 1007.2
20260505195655 26 113 1.6 3.2 0.00 0.00 0.00 81 1007.0
20260505195152 26 239 3.2 3.2 0.00 0.00 0.00 83 1007.3
20260505194649 26 237 4.8 9.7 0.00 0.00 0.00 81 1007.5
20260505194145 27 169 3.2 4.8 0.00 0.00 0.00 82 1007.5
20260505193642 26 90 0.0 3.2 0.00 0.00 0.00 82 1007.3
20260505193139 26 214 4.8 9.7 0.00 0.00 0.00 82 1007.5
20260505192638 26 225 3.2 4.8 0.00 0.00 0.00 83 1007.7
20260505192135 26 88 3.2 3.2 0.00 0.00 0.00 83 1007.9
20260505191633 26 106 1.6 3.2 0.00 0.00 0.00 84 1007.8
20260505191131 26 83 0.0 3.2 0.00 0.00 0.00 84 1007.8
20260505190627 25 180 4.8 8.0 0.00 0.00 0.00 84 1007.7
20260505190127 25 90 0.0 0.0 0.00 0.00 0.00 84 1007.8
20260505185624 25 114 1.6 3.2 0.00 0.00 0.00 85 1007.9
20260505185121 25 103 1.6 3.2 0.00 0.00 0.00 85 1007.9
20260505184617 25 93 1.6 3.2 0.00 0.00 0.00 85 1008.0
20260505184114 25 217 8.0 9.7 0.00 0.00 0.00 84 1008.2
20260505183610 25 82 1.6 3.2 0.00 0.00 0.00 85 1008.0
20260505183108 25 116 3.2 4.8 0.00 0.00 0.00 84 1008.2
20260505182604 25 138 1.6 3.2 0.00 0.00 0.00 84 1008.1
20260505182101 25 192 4.8 14.5 0.00 0.00 0.00 86 1008.3
20260505181558 25 116 1.6 3.2 0.00 0.00 0.00 87 1008.1
20260505181055 25 62 3.2 3.2 0.00 0.00 0.00 86 1008.4
20260505180550 25 235 3.2 4.8 0.00 0.00 0.00 86 1008.2
20260505180049 25 216 11.3 12.9 0.00 0.00 0.00 85 1008.4
20260505175549 25 223 4.8 4.8 0.00 0.00 0.00 85 1008.3
20260505175046 25 167 3.2 4.8 0.00 0.00 0.00 86 1008.2
20260505174538 25 164 6.4 8.0 0.00 0.00 0.00 86 1008.3
20260505174034 24 106 1.6 3.2 0.00 0.00 0.00 87 1008.6
20260505173531 24 167 6.4 8.0 0.00 0.00 0.00 88 1008.6
20260505173028 24 191 4.8 9.7 0.00 0.00 0.00 88 1008.7
20260505172526 24 121 3.2 4.8 0.00 0.00 0.00 88 1008.5
20260505172021 23 206 3.2 4.8 0.00 0.00 0.00 89 1008.5
20260505171517 23 112 6.4 9.7 0.00 0.00 0.00 89 1008.5
20260505171014 23 351 3.2 4.8 0.00 0.00 0.00 90 1008.6
20260505170510 23 196 3.2 4.8 0.00 0.00 0.00 90 1008.7
20260505170006 23 134 1.6 3.2 0.00 0.00 0.00 90 1008.9
20260505165502 23 180 1.6 4.8 0.00 0.00 0.00 90 1009.0
20260505164958 23 207 3.2 3.2 0.00 0.00 0.00 91 1008.5
20260505164454 23 140 4.8 4.8 0.00 0.00 0.00 90 1008.7
20260505163953 23 73 1.6 4.8 0.00 0.00 0.00 90 1008.9
20260505163451 23 120 3.2 4.8 0.00 0.00 0.00 89 1008.7
20260505162950 23 308 3.2 4.8 0.00 0.00 0.00 90 1008.5
20260505162445 23 180 6.4 9.7 0.00 0.00 0.00 90 1008.8
20260505161942 23 121 3.2 4.8 0.00 0.00 0.00 91 1009.2
20260505161438 23 217 3.2 4.8 0.00 0.00 0.00 92 1008.8
20260505160935 22 64 4.8 8.0 0.00 0.00 0.00 92 1008.8
20260505160434 22 146 6.4 9.7 0.00 0.00 0.00 93 1008.9
20260505152910 22 78 1.6 3.2 0.00 0.00 0.00 93 1008.8
20260505152407 22 346 4.8 8.0 0.00 0.00 0.00 93 1008.7
20260505151907 22 90 3.2 4.8 0.00 0.00 0.00 94 1008.5
20260505151404 22 180 6.4 9.7 0.00 0.00 0.00 94 1008.4
20260505150901 22 186 4.8 8.0 0.00 0.00 0.00 94 1008.7
20260505150358 22 88 0.0 3.2 0.00 0.00 0.00 94 1008.4
20260505140322 22 215 3.2 4.8 0.00 0.00 0.00 94 1008.2
20260505130240 21 212 3.2 4.8 0.00 0.00 0.00 95 1008.2
20260505124731 21 99 0.0 0.0 0.00 0.00 0.00 95 1007.7
20260505124228 21 120 1.6 3.2 0.00 0.00 0.00 95 1007.7
20260505123723 21 340 4.8 8.0 0.00 0.00 0.00 95 1007.5
20260505123220 21 94 0.0 0.0 0.00 0.00 0.00 95 1007.3
20260505122717 21 224 6.4 8.0 0.00 0.00 0.00 95 1007.3
20260505122214 21 107 3.2 4.8 0.00 0.00 0.00 94 1007.5
20260505121710 21 102 0.0 3.2 0.00 0.00 0.00 94 1007.0
20260505121206 21 123 3.2 4.8 0.00 0.00 0.00 94 1007.0
20260505120703 21 186 3.2 4.8 0.00 0.00 0.00 94 1006.9
20260505120200 21 221 6.4 8.0 0.00 0.00 0.00 94 1007.0
20260505115658 21 181 0.0 3.2 0.00 0.00 0.00 94 1006.9
20260505115156 21 172 6.4 8.0 0.00 0.00 0.00 94 1006.8
20260505114654 21 119 3.2 4.8 0.00 0.00 0.00 94 1007.0
20260505114149 21 192 1.6 3.2 0.00 0.00 0.00 94 1007.1
20260505113646 21 142 3.2 8.0 0.00 0.00 0.00 94 1006.9
20260505113143 21 202 1.6 8.0 0.00 0.00 0.00 94 1006.6
20260505112639 21 101 1.6 3.2 0.00 0.00 0.00 94 1006.7
20260505112137 21 288 1.6 3.2 0.00 0.00 0.00 93 1006.9
20260505111631 21 77 0.0 0.0 0.00 0.00 0.00 93 1007.0
20260505111127 21 149 6.4 8.0 0.00 0.00 0.00 93 1007.2
20260505110623 21 127 8.0 12.9 0.00 0.00 0.00 93 1007.2
20260505110120 21 164 4.8 8.0 0.00 0.00 0.00 94 1007.2
20260505102056 20 98 1.6 3.2 0.00 0.00 0.00 93 1007.3
20260505101555 20 228 4.8 14.5 0.00 0.00 0.00 93 1007.2
20260505101051 20 159 1.6 4.8 0.00 0.00 0.00 93 1007.7
20260505100547 20 326 4.8 4.8 0.00 0.00 0.00 93 1007.6
20260505100044 21 164 3.2 4.8 0.00 0.00 0.00 93 1007.2
20260505095540 21 236 4.8 12.9 0.00 0.00 0.00 93 1007.2
20260505095037 21 107 1.6 3.2 0.00 0.00 0.00 93 1007.5
20260505094533 21 100 1.6 3.2 0.00 0.00 0.00 93 1007.6
20260505094030 21 262 0.0 3.2 0.00 0.00 0.00 93 1007.8
20260505093526 21 147 1.6 3.2 0.00 0.00 0.00 93 1007.3
20260505093024 21 225 6.4 8.0 0.00 0.00 0.00 93 1007.3
20260505092521 21 263 4.8 8.0 0.00 0.00 0.00 93 1007.6
20260505092019 21 202 6.4 8.0 0.00 0.00 0.00 93 1007.8
20260505091516 21 100 1.6 3.2 0.00 0.00 0.00 93 1007.8
20260505091014 21 103 6.4 9.7 0.00 0.00 0.00 93 1007.7
20260505090512 21 131 3.2 4.8 0.00 0.00 0.00 93 1007.5
20260505090009 21 97 3.2 4.8 0.00 0.00 0.00 93 1007.8
20260505085507 21 240 6.4 9.7 0.00 0.00 0.00 93 1007.6
20260505085005 21 47 1.6 3.2 0.00 0.00 0.00 93 1007.7
20260505084503 21 52 1.6 3.2 0.00 0.00 0.00 93 1007.7
20260505084001 21 110 3.2 4.8 0.00 0.00 0.00 93 1007.9
20260505083457 21 188 4.8 8.0 0.00 0.00 0.00 93 1007.9
20260505082954 21 108 1.6 3.2 0.00 0.00 0.00 93 1007.8
20260505082449 21 238 4.8 9.7 0.00 0.00 0.00 93 1007.9
20260505081947 21 198 1.6 3.2 0.00 0.00 0.00 93 1008.0
20260505081444 21 155 1.6 3.2 0.00 0.00 0.00 93 1008.0
20260505080940 21 112 4.8 8.0 0.00 0.00 0.00 93 1008.1
20260505080436 21 148 3.2 4.8 0.00 0.00 0.00 92 1007.9
20260505075932 21 121 4.8 8.0 0.00 0.00 0.00 92 1008.0
20260505075429 21 178 3.2 3.2 0.00 0.00 0.00 92 1008.2
20260505074926 21 142 4.8 8.0 0.00 0.00 0.00 92 1008.3
20260505074424 21 110 1.6 3.2 0.00 0.00 0.00 92 1008.3
20260505073920 21 107 3.2 3.2 0.00 0.00 0.00 92 1008.0
20260505073418 21 183 3.2 4.8 0.00 0.00 0.00 92 1008.2
20260505072915 21 155 3.2 4.8 0.00 0.00 0.00 92 1008.2
20260505072411 21 153 3.2 4.8 0.00 0.00 0.00 92 1008.4
20260505071908 21 188 4.8 8.0 0.00 0.00 0.00 92 1008.5
20260505071404 21 92 1.6 3.2 0.00 0.00 0.00 92 1008.5
20260505070902 21 140 4.8 9.7 0.00 0.00 0.00 92 1008.6
20260505070358 21 95 1.6 3.2 0.00 0.00 0.00 92 1008.5
20260505065854 21 120 1.6 4.8 0.00 0.00 0.00 92 1008.6
20260505065351 21 306 1.6 4.8 0.00 0.00 0.00 92 1008.8
20260505064848 21 99 1.6 3.2 0.00 0.00 0.00 91 1008.7
20260505064345 21 128 3.2 8.0 0.00 0.00 0.00 91 1008.9
20260505063843 21 155 3.2 4.8 0.00 0.00 0.00 92 1008.8
20260505063338 21 208 8.0 9.7 0.00 0.00 0.00 92 1008.9
20260505062835 21 84 3.2 4.8 0.00 0.00 0.00 92 1009.2
20260505062333 21 79 4.8 4.8 0.00 0.00 0.00 91 1009.0
20260505061829 21 89 0.0 0.0 0.00 0.00 0.00 91 1009.3
20260505061328 21 276 4.8 8.0 0.00 0.00 0.00 92 1009.4
20260505060825 21 148 12.9 19.3 0.00 0.00 0.00 92 1009.3
20260505060321 21 213 1.6 4.8 0.00 0.00 0.00 92 1009.3
20260505055817 21 101 4.8 9.7 0.00 0.00 0.00 92 1009.1
20260505055313 21 175 0.0 0.0 0.00 0.00 0.00 92 1009.2
20260505054811 20 126 1.6 3.2 0.00 0.00 0.00 92 1009.2
20260505054308 20 157 1.6 3.2 0.00 0.00 0.00 92 1009.2
20260505053806 21 102 1.6 3.2 0.00 0.00 0.00 92 1009.2
20260505053303 21 165 0.0 3.2 0.00 0.00 0.00 92 1009.0
20260505052800 21 256 4.8 4.8 0.00 0.00 0.00 92 1009.1
20260505052257 21 201 6.4 9.7 0.00 0.00 0.00 92 1009.2
20260505051754 21 221 3.2 4.8 0.00 0.00 0.00 92 1009.0
20260505051252 21 87 0.0 3.2 0.00 0.00 0.00 91 1009.2
20260505050749 21 114 1.6 3.2 0.00 0.00 0.00 91 1009.1
20260505050248 21 113 1.6 3.2 0.00 0.00 0.00 91 1009.1
20260505041717 21 233 3.2 8.0 0.00 0.00 0.00 88 1009.2
20260505041215 21 172 3.2 4.8 0.00 0.00 0.00 88 1009.3
20260505040712 22 191 4.8 8.0 0.00 0.00 0.00 88 1009.0
20260505040209 22 214 1.6 3.2 0.00 0.00 0.00 88 1009.2
20260505035706 22 128 3.2 4.8 0.00 0.00 0.00 87 1009.1
20260505035202 22 97 3.2 3.2 0.00 0.00 0.00 87 1009.1
20260505034659 22 112 3.2 4.8 0.00 0.00 0.00 87 1009.1
20260505034156 22 120 0.0 3.2 0.00 0.00 0.00 87 1009.2
20260505033652 22 195 1.6 3.2 0.00 0.00 0.00 86 1008.9
20260505033150 22 128 3.2 4.8 0.00 0.00 0.00 86 1009.1
20260505032648 22 112 1.6 3.2 0.00 0.00 0.00 86 1008.9
20260505032144 22 251 1.6 3.2 0.00 0.00 0.00 86 1009.3
20260505031642 22 167 3.2 4.8 0.00 0.00 0.00 86 1009.1
20260505031138 22 105 1.6 3.2 0.00 0.00 0.00 85 1009.1
20260505030635 22 203 1.6 4.8 0.00 0.00 0.00 85 1009.0
20260505030131 22 187 4.8 8.0 0.00 0.00 0.00 85 1009.1
20260505025627 22 169 3.2 4.8 0.00 0.00 0.00 85 1009.1
20260505025126 22 194 3.2 4.8 0.00 0.00 0.00 85 1008.8
20260505024623 22 108 3.2 4.8 0.00 0.00 0.00 84 1008.8
20260505024120 22 129 1.6 3.2 0.00 0.00 0.00 84 1008.8
20260505023617 22 196 3.2 4.8 0.00 0.00 0.00 84 1008.9
20260505023115 22 106 0.0 0.0 0.00 0.00 0.00 83 1008.8
20260505022612 23 176 3.2 4.8 0.00 0.00 0.00 83 1009.0
20260505022108 23 190 4.8 8.0 0.00 0.00 0.00 83 1008.6
20260505021605 23 96 0.0 0.0 0.00 0.00 0.00 82 1008.7
20260505021102 23 205 4.8 9.7 0.00 0.00 0.00 82 1008.9
20260505020603 23 117 1.6 3.2 0.00 0.00 0.00 82 1008.7
20260505020059 23 106 1.6 3.2 0.00 0.00 0.00 81 1008.6
20260505015556 23 170 1.6 3.2 0.00 0.00 0.00 81 1008.8
20260505015053 23 169 3.2 4.8 0.00 0.00 0.00 81 1008.6
20260505014550 23 108 0.0 0.0 0.00 0.00 0.00 81 1008.6
20260505014047 23 89 1.6 3.2 0.00 0.00 0.00 80 1008.8
20260505013544 23 98 3.2 4.8 0.00 0.00 0.00 80 1008.6
20260505013041 23 198 3.2 4.8 0.00 0.00 0.00 80 1008.9
20260505012539 23 206 3.2 4.8 0.00 0.00 0.00 79 1008.5
20260505012036 23 109 0.0 0.0 0.00 0.00 0.00 79 1008.5
20260505011536 23 121 3.2 4.8 0.00 0.00 0.00 78 1008.5
20260505011034 24 137 3.2 4.8 0.00 0.00 0.00 77 1008.5
20260505010529 24 141 4.8 8.0 0.00 0.00 0.00 76 1008.5
20260505010026 24 117 3.2 4.8 0.00 0.00 0.00 75 1008.5
20260505005522 25 169 3.2 4.8 0.00 0.00 0.00 75 1008.5
20260505005020 25 235 3.2 3.2 0.00 0.00 0.00 74 1008.6